QPF
0.00 0.00 0.00 0.00 0.00 0.00 0.00 0.00 0.00 0.00 0.02 0.01 0.00 0.01 0.00 0.00 0.00 0.00 0.00 0.00 0.00 0.00 0.00 0.00 0.00 0.00 0.00 0.00 0.00 0.00 0.00 0.00 0.00 0.00 0.00 0.00 0.00 0.00 0.00 0.00 0.00 0.00 0.00 0.00 0.00 0.00 0.00 0.00 0.00
0.00 0.00 0.00 0.00 0.00 0.00 0.00 0.00 0.00 0.00 0.02 0.02 0.01 0.00 0.00 0.00 0.00 0.00 0.00 0.00 0.00 0.00 0.00 0.00 0.00 0.00 0.00 0.00 0.00 0.00 0.00 0.00 0.00 0.00 0.00 0.00 0.00 0.00 0.00 0.00 0.00 0.00 0.00 0.00 0.00 0.00 0.00 0.00 0.00
0.00 0.00 0.00 0.00 0.00 0.00 0.00 0.00 0.00 0.00 0.03 0.02 0.02 0.00 0.00 0.00 0.00 0.00 0.00 0.00 0.00 0.00 0.00 0.00 0.00 0.00 0.00 0.00 0.00 0.00 0.00 0.00 0.00 0.00 0.00 0.00 0.00 0.00 0.00 0.00 0.00 0.00 0.00 0.00 0.00 0.00 0.00 0.00 0.00
0.00 0.00 0.00 0.00 0.00 0.00 0.00 0.00 0.00 0.00 0.00 0.00 0.00 0.00 0.00 0.00 0.00 0.00 0.00 0.00 0.00 0.00 0.00 0.00 0.00 0.00 0.00 0.00 0.00 0.00 0.00 0.00 0.00 0.00 0.00 0.00 0.00 0.00 0.00 0.00 0.00 0.00 0.00 0.00 0.00 0.00 0.00 0.00 0.00
0.00 0.00 0.00 0.00 0.00 0.00 0.00 0.00 0.00 0.00 0.00 0.00 0.00 0.00 0.00 0.00 0.00 0.00 0.00 0.00 0.00 0.00 0.00 0.00 0.00 0.00 0.00 0.00 0.00 0.00 0.00 0.00 0.00 0.00 0.00 0.00 0.00 0.00 0.00 0.00 0.00 0.00 0.00 0.00 0.00 0.00 0.00 0.00 0.00
0.00 0.00 0.00 0.00 0.00 0.00 0.00 0.00 0.00 0.00 0.00 0.00 0.00 0.00 0.00 0.00 0.00 0.00 0.00 0.00 0.00 0.00 0.00 0.00 0.00 0.00 0.00 0.00 0.00 0.00 0.00 0.00 0.00 0.00 0.00 0.00 0.00 0.00 0.00 0.00 0.00 0.00 0.00 0.00 0.00 0.00 0.00 0.00 0.00
0.00 0.00 0.00 0.00 0.00 0.00 0.00 0.00 0.00 0.00 0.00 0.01 0.00 0.00 0.00 0.00 0.00 0.00 0.00 0.00 0.00 0.00 0.00 0.00 0.00 0.00 0.00 0.00 0.00 0.00 0.00 0.00 0.00 0.00 0.00 0.00 0.00 0.00 0.00 0.00 0.00 0.00 0.00 0.00 0.00 0.00 0.00 0.00 0.00
0.00 0.00 0.00 0.00 0.00 0.00 0.00 0.00 0.00 0.00 0.00 0.00 0.00 0.00 0.00 0.00 0.00 0.00 0.00 0.00 0.00 0.00 0.00 0.00 0.00 0.00 0.00 0.00 0.00 0.00 0.00 0.00 0.00 0.00 0.00 0.00 0.00 0.00 0.00 0.00 0.00 0.00 0.00 0.00 0.00 0.00 0.00 0.00 0.00
0.00 0.00 0.00 0.00 0.00 0.00 0.00 0.00 0.00 0.00 0.00 0.00 0.00 0.00 0.00 0.00 0.00 0.00 0.00 0.00 0.00 0.00 0.00 0.00 0.00 0.00 0.00 0.00 0.00 0.00 0.00 0.00 0.00 0.00 0.00 0.00 0.00 0.00 0.00 0.00 0.00 0.00 0.00 0.00 0.00 0.00 0.00 0.00 0.00
0.00 0.00 0.00 0.00 0.00 0.00 0.00 0.00 0.00 0.00 0.00 0.00 0.00 0.00 0.00 0.00 0.00 0.00 0.00 0.00 0.00 0.00 0.00 0.00 0.00 0.00 0.00 0.00 0.00 0.00 0.00 0.00 0.00 0.00 0.00 0.00 0.00 0.00 0.00 0.00 0.00 0.00 0.00 0.00 0.00 0.00 0.00 0.00 0.00
0.00 0.00 0.00 0.00 0.00 0.00 0.00 0.00 0.00 0.00 0.00 0.00 0.00 0.00 0.00 0.00 0.00 0.00 0.00 0.00 0.00 0.00 0.00 0.00 0.00 0.00 0.00 0.00 0.00 0.00 0.00 0.00 0.00 0.00 0.00 0.00 0.00 0.00 0.00 0.00 0.00 0.00 0.00 0.00 0.00 0.00 0.00 0.00 0.00
0.00 0.00 0.00 0.00 0.00 0.00 0.00 0.00 0.00 0.00 0.00 0.00 0.00 0.00 0.00 0.00 0.00 0.00 0.00 0.00 0.00 0.00 0.00 0.00 0.00 0.00 0.00 0.00 0.00 0.00 0.00 0.00 0.00 0.00 0.00 0.00 0.00 0.00 0.00 0.00 0.00 0.00 0.00 0.00 0.00 0.00 0.00 0.00 0.00
0.00 0.00 0.00 0.00 0.00 0.00 0.00 0.00 0.00 0.00 0.00 0.00 0.00 0.00 0.00 0.00 0.00 0.00 0.00 0.00 0.00 0.00 0.00 0.00 0.00 0.00 0.00 0.00 0.00 0.00 0.00 0.00 0.00 0.00 0.00 0.00 0.00 0.00 0.00 0.00 0.00 0.00 0.00 0.00 0.00 0.00 0.00 0.00 0.00
0.00 0.00 0.00 0.00 0.00 0.00 0.00 0.00 0.00 0.00 0.00 0.00 0.00 0.00 0.00 0.00 0.00 0.00 0.00 0.00 0.00 0.00 0.00 0.00 0.00 0.00 0.00 0.00 0.00 0.00 0.00 0.00 0.00 0.00 0.00 0.00 0.00 0.00 0.00 0.00 0.00 0.00 0.00 0.00 0.00 0.00 0.00 0.00 0.00
0.00 0.00 0.00 0.00 0.00 0.00 0.00 0.00 0.00 0.00 0.00 0.00 0.00 0.00 0.00 0.00 0.00 0.00 0.00 0.00 0.00 0.00 0.00 0.00 0.00 0.00 0.00 0.00 0.00 0.00 0.00 0.00 0.00 0.00 0.00 0.00 0.00 0.00 0.00 0.00 0.00 0.00 0.00 0.00 0.00 0.00 0.00 0.00 0.00
0.00 0.00 0.00 0.00 0.00 0.00 0.00 0.00 0.00 0.00 0.00 0.00 0.00 0.00 0.00 0.00 0.00 0.00 0.00 0.00 0.00 0.00 0.00 0.00 0.00 0.00 0.00 0.00 0.00 0.00 0.00 0.00 0.00 0.00 0.00 0.00 0.00 0.00 0.00 0.00 0.00 0.00 0.00 0.00 0.00 0.00 0.00 0.00 0.00
0.00 0.00 0.00 0.00 0.00 0.00 0.00 0.00 0.00 0.00 0.00 0.00 0.00 0.00 0.00 0.00 0.00 0.00 0.00 0.00 0.00 0.00 0.00 0.00 0.00 0.00 0.00 0.00 0.00 0.00 0.00 0.00 0.00 0.00 0.00 0.00 0.00 0.00 0.00 0.00 0.00 0.00 0.00 0.00 0.00 0.00 0.00 0.00 0.00
0.00 0.00 0.00 0.00 0.00 0.00 0.00 0.00 0.00 0.00 0.00 0.00 0.00 0.00 0.00 0.00 0.00 0.00 0.00 0.00 0.01 0.00 0.00 0.00 0.00 0.00 0.00 0.00 0.00 0.00 0.00 0.00 0.00 0.00 0.00 0.01 0.03 0.00 0.00 0.00 0.00 0.00 0.00 0.00 0.00 0.00 0.00 0.00 0.00
0.00 0.00 0.00 0.00 0.00 0.00 0.00 0.00 0.00 0.00 0.00 0.00 0.00 0.00 0.00 0.00 0.00 0.00 0.00 0.00 0.00 0.00 0.00 0.00 0.00 0.00 0.00 0.00 0.00 0.00 0.00 0.01 0.05 0.05 0.03 0.02 0.00 0.00 0.00 0.00 0.00 0.00 0.00 0.00 0.00 0.00 0.00 0.00 0.00
0.00 0.00 0.00 0.00 0.00 0.00 0.00 0.00 0.00 0.00 0.00 0.00 0.00 0.00 0.00 0.00 0.00 0.00 0.00 0.00 0.00 0.00 0.00 0.00 0.00 0.00 0.00 0.00 0.00 0.00 0.02 0.01 0.02 0.00 0.00 0.00 0.00 0.00 0.00 0.00 0.00 0.00 0.00 0.00 0.00 0.00 0.00 0.00 0.00
0.00 0.00 0.00 0.00 0.00 0.00 0.00 0.00 0.00 0.00 0.00 0.00 0.00 0.00 0.00 0.00 0.00 0.00 0.00 0.00 0.00 0.00 0.00 0.00 0.00 0.00 0.00 0.01 0.02 0.00 0.00 0.00 0.01 0.00 0.00 0.00 0.00 0.00 0.00 0.00 0.00 0.00 0.00 0.00 0.00 0.00 0.00 0.00 0.00
0.00 0.00 0.00 0.00 0.00 0.00 0.00 0.00 0.00 0.00 0.00 0.00 0.00 0.00 0.00 0.00 0.00 0.00 0.00 0.00 0.00 0.00 0.00 0.00 0.00 0.00 0.00 0.00 0.01 0.03 0.01 0.01 0.00 0.00 0.00 0.00 0.00 0.00 0.00 0.00 0.00 0.00 0.00 0.00 0.00 0.00 0.00 0.00 0.00
0.00 0.00 0.00 0.00 0.00 0.00 0.00 0.00 0.00 0.00 0.00 0.00 0.00 0.00 0.00 0.00 0.00 0.00 0.00 0.00 0.00 0.00 0.00 0.00 0.00 0.00 0.00 0.00 0.01 0.01 0.00 0.00 0.00 0.00 0.00 0.00 0.00 0.00 0.00 0.00 0.00 0.00 0.00 0.00 0.00 0.00 0.00 0.00 0.00
0.00 0.00 0.00 0.00 0.00 0.00 0.00 0.00 0.00 0.00 0.00 0.00 0.00 0.00 0.00 0.00 0.00 0.00 0.00 0.00 0.00 0.00 0.00 0.00 0.00 0.00 0.00 0.00 0.00 0.00 0.00 0.00 0.00 0.00 0.00 0.00 0.00 0.00 0.00 0.00 0.00 0.00 0.00 0.00 0.00 0.00 0.00 0.00 0.00
0.00 0.00 0.00 0.00 0.00 0.00 0.00 0.00 0.00 0.00 0.00 0.00 0.00 0.00 0.00 0.00 0.00 0.00 0.00 0.00 0.00 0.00 0.00 0.00 0.00 0.00 0.00 0.00 0.00 0.00 0.00 0.00 0.00 0.00 0.00 0.00 0.00 0.00 0.00 0.00 0.00 0.00 0.00 0.00 0.00 0.00 0.00 0.00 0.00
0.00 0.00 0.00 0.00 0.00 0.00 0.00 0.00 0.00 0.00 0.00 0.00 0.00 0.00 0.00 0.00 0.00 0.00 0.00 0.00 0.00 0.00 0.00 0.00 0.00 0.00 0.00 0.00 0.00 0.00 0.00 0.00 0.00 0.00 0.00 0.00 0.00 0.00 0.00 0.00 0.00 0.00 0.00 0.00 0.00 0.00 0.00 0.00 0.00
0.00 0.00 0.00 0.00 0.00 0.00 0.00 0.00 0.00 0.00 0.00 0.00 0.00 0.00 0.00 0.00 0.00 0.00 0.00 0.00 0.00 0.00 0.00 0.00 0.00 0.00 0.00 0.00 0.00 0.00 0.00 0.00 0.00 0.00 0.00 0.00 0.00 0.00 0.00 0.00 0.00 0.00 0.00 0.00 0.00 0.00 0.00 0.00 0.00
0.00 0.00 0.00 0.00 0.00 0.00 0.00 0.00 0.00 0.00 0.00 0.00 0.00 0.00 0.00 0.00 0.00 0.00 0.00 0.00 0.00 0.00 0.00 0.00 0.00 0.00 0.00 0.00 0.00 0.00 0.00 0.00 0.00 0.00 0.00 0.00 0.00 0.00 0.00 0.00 0.00 0.00 0.00 0.00 0.00 0.00 0.00 0.00 0.00
0.00 0.00 0.00 0.00 0.00 0.00 0.00 0.00 0.00 0.00 0.00 0.00 0.00 0.00 0.00 0.00 0.00 0.00 0.00 0.00 0.00 0.00 0.00 0.00 0.00 0.00 0.00 0.00 0.00 0.00 0.00 0.00 0.00 0.00 0.00 0.00 0.00 0.00 0.00 0.00 0.00 0.00 0.00 0.00 0.00 0.00 0.00 0.00 0.00
0.00 0.00 0.00 0.00 0.00 0.00 0.00 0.00 0.00 0.00 0.00 0.00 0.00 0.00 0.00 0.00 0.00 0.00 0.00 0.00 0.00 0.00 0.00 0.00 0.00 0.00 0.00 0.00 0.00 0.00 0.00 0.00 0.00 0.00 0.00 0.00 0.00 0.00 0.00 0.00 0.00 0.00 0.00 0.00 0.00 0.00 0.00 0.00 0.00
MSLP
1011.83 1011.96 1012.28 1012.42 1013.70 1014.21 1014.41 1014.36 1013.69 1012.96 1012.37 1011.86 1011.03 1011.18 1011.41 1011.95 1012.58 1013.58 1012.82 1013.02 1012.98 1013.98 1014.57 1014.87 1015.44 1015.70 1015.71 1015.86 1016.08 1016.26 1016.45 1016.78 1016.89 1017.15 1017.22 1017.38 1017.42 1017.50 1017.48 1017.50 1017.57 1017.53 1017.52 1017.45 1017.37 1017.28 1017.18 1017.13 1017.13
1011.89 1012.09 1012.37 1013.03 1014.06 1014.77 1014.45 1013.94 1013.39 1012.82 1012.20 1011.46 1011.32 1011.45 1011.65 1011.89 1012.26 1012.94 1013.37 1013.41 1013.39 1014.05 1014.57 1014.92 1015.30 1015.60 1015.74 1015.90 1016.16 1016.44 1016.67 1016.93 1017.01 1017.18 1017.25 1017.42 1017.50 1017.57 1017.65 1017.68 1017.75 1017.61 1017.60 1017.54 1017.42 1017.32 1017.19 1017.12 1017.12
1012.06 1012.28 1013.37 1013.96 1014.81 1014.87 1014.07 1013.42 1012.80 1012.15 1011.63 1011.41 1011.67 1011.37 1012.04 1012.34 1012.49 1012.71 1013.01 1013.56 1013.88 1014.57 1014.75 1015.06 1015.43 1015.69 1015.93 1016.21 1016.53 1016.78 1017.02 1017.09 1017.20 1017.27 1017.44 1017.51 1017.56 1017.56 1017.64 1017.69 1017.74 1017.69 1017.64 1017.56 1017.52 1017.45 1017.34 1017.22 1017.13
1012.47 1012.98 1014.07 1014.31 1014.58 1014.12 1013.50 1012.96 1012.16 1011.66 1011.55 1010.88 1011.64 1012.01 1011.98 1012.07 1012.15 1012.56 1013.40 1013.87 1014.50 1015.12 1015.11 1015.17 1015.59 1015.90 1016.25 1016.59 1016.89 1017.08 1017.22 1017.36 1017.43 1017.46 1017.57 1017.57 1017.55 1017.56 1017.60 1017.63 1017.71 1017.73 1017.72 1017.66 1017.62 1017.60 1017.47 1017.29 1017.19
1012.94 1013.99 1014.70 1014.73 1014.22 1013.73 1012.96 1012.20 1011.36 1011.50 1011.74 1011.69 1011.12 1012.82 1012.68 1012.84 1012.89 1012.77 1013.46 1014.15 1014.76 1015.40 1015.36 1015.44 1015.83 1016.23 1016.56 1016.89 1017.05 1017.20 1017.28 1017.43 1017.45 1017.47 1017.48 1017.50 1017.54 1017.58 1017.60 1017.59 1017.59 1017.65 1017.69 1017.63 1017.62 1017.62 1017.52 1017.41 1017.33
1013.46 1014.41 1015.19 1015.13 1013.95 1013.22 1012.73 1012.35 1012.26 1012.11 1012.23 1011.63 1011.45 1012.46 1012.95 1012.86 1013.22 1013.50 1013.59 1014.20 1014.80 1014.99 1015.30 1015.60 1015.96 1016.33 1016.51 1016.78 1016.97 1017.14 1017.20 1017.31 1017.40 1017.41 1017.48 1017.55 1017.66 1017.69 1017.71 1017.73 1017.72 1017.70 1017.70 1017.74 1017.67 1017.61 1017.55 1017.50 1017.49
1013.33 1014.59 1015.06 1014.78 1013.92 1013.25 1012.51 1012.50 1012.43 1011.93 1011.75 1011.18 1011.06 1012.12 1012.68 1012.93 1013.51 1013.61 1013.78 1014.20 1014.77 1015.07 1015.27 1015.49 1015.68 1015.97 1016.24 1016.51 1016.70 1016.89 1017.04 1017.25 1017.38 1017.45 1017.52 1017.60 1017.70 1017.72 1017.74 1017.75 1017.76 1017.78 1017.76 1017.69 1017.69 1017.64 1017.58 1017.58 1017.53
1012.96 1014.05 1014.51 1014.17 1013.61 1013.08 1012.66 1012.40 1012.21 1011.72 1011.67 1010.97 1011.05 1011.18 1012.21 1012.38 1013.16 1013.99 1014.29 1014.60 1015.05 1015.27 1015.33 1015.42 1015.47 1015.66 1015.91 1016.14 1016.33 1016.61 1016.88 1017.14 1017.31 1017.43 1017.47 1017.60 1017.67 1017.63 1017.65 1017.72 1017.80 1017.83 1017.83 1017.82 1017.78 1017.72 1017.67 1017.66 1017.63
1012.65 1013.65 1013.86 1013.54 1012.91 1012.70 1012.64 1012.44 1012.16 1011.82 1011.55 1011.15 1010.79 1010.37 1010.45 1011.55 1013.20 1014.39 1014.79 1015.08 1015.27 1015.32 1015.38 1015.41 1015.54 1015.59 1015.85 1016.16 1016.40 1016.52 1016.68 1016.77 1016.90 1017.05 1017.24 1017.42 1017.66 1017.80 1017.82 1017.79 1017.74 1017.81 1017.88 1018.00 1018.03 1018.07 1018.11 1018.08 1018.00
1012.57 1013.27 1012.51 1011.87 1011.75 1012.07 1012.25 1012.28 1012.10 1012.27 1011.71 1010.80 1010.02 1009.74 1010.40 1011.02 1012.54 1013.51 1014.52 1015.10 1015.53 1015.57 1015.78 1015.63 1015.34 1015.38 1015.65 1015.78 1016.16 1016.56 1016.69 1016.67 1016.88 1017.12 1017.32 1017.57 1017.76 1017.84 1017.90 1017.93 1017.86 1018.01 1018.16 1018.24 1018.33 1018.33 1018.32 1018.38 1018.45
1012.07 1012.10 1011.09 1010.87 1011.18 1011.29 1011.78 1012.16 1012.19 1012.26 1012.18 1010.22 1009.45 1009.93 1010.41 1011.33 1012.41 1013.15 1013.48 1013.81 1013.88 1014.59 1015.36 1015.33 1015.40 1015.31 1015.43 1015.65 1016.25 1016.53 1016.60 1016.76 1016.94 1017.08 1017.37 1017.74 1017.90 1017.97 1018.10 1018.40 1018.49 1018.47 1018.50 1018.72 1018.77 1018.79 1018.85 1018.86 1018.75
1011.65 1010.83 1010.63 1010.12 1010.30 1010.92 1011.28 1011.41 1011.64 1011.45 1010.03 1009.56 1009.36 1008.88 1009.83 1011.03 1011.66 1012.47 1012.86 1013.31 1013.92 1014.04 1014.21 1014.75 1015.14 1015.28 1015.41 1015.41 1015.77 1016.10 1016.57 1016.90 1017.08 1017.31 1017.53 1017.87 1018.27 1018.43 1018.56 1018.60 1018.86 1019.01 1019.01 1019.06 1019.18 1019.27 1019.30 1019.18 1018.98
1011.10 1010.38 1010.09 1009.43 1009.84 1009.72 1010.26 1010.49 1010.88 1010.45 1009.87 1010.06 1009.86 1009.55 1010.04 1010.95 1011.29 1011.64 1011.92 1012.84 1013.69 1014.07 1014.13 1014.46 1014.73 1014.91 1014.82 1015.03 1015.13 1015.60 1016.15 1016.89 1017.09 1017.14 1017.45 1017.74 1018.17 1018.42 1018.65 1018.97 1019.09 1019.34 1019.36 1019.43 1019.46 1019.47 1019.38 1019.30 1019.16
1010.30 1009.97 1009.45 1009.16 1008.90 1009.22 1009.66 1010.43 1010.72 1009.09 1009.57 1009.92 1009.93 1009.64 1010.44 1011.22 1011.96 1011.95 1012.26 1012.62 1013.29 1013.44 1013.59 1014.03 1014.36 1014.27 1014.38 1014.56 1014.75 1015.01 1015.57 1016.39 1017.11 1017.33 1017.52 1017.80 1018.18 1018.51 1018.81 1019.19 1019.37 1019.51 1019.57 1019.58 1019.56 1019.69 1019.64 1019.57 1019.44
1010.22 1010.18 1009.39 1008.70 1008.90 1009.42 1009.61 1010.90 1010.13 1008.99 1009.24 1009.62 1009.83 1010.64 1011.15 1011.26 1011.45 1011.66 1011.51 1011.70 1012.11 1012.49 1013.16 1013.43 1013.74 1013.86 1014.44 1014.76 1014.63 1015.11 1015.34 1016.16 1017.12 1017.41 1017.63 1018.09 1018.42 1018.66 1018.83 1019.10 1019.55 1019.75 1019.67 1019.66 1019.66 1019.63 1019.49 1019.54 1019.53
1010.63 1010.59 1010.28 1008.99 1008.71 1008.85 1009.29 1009.38 1008.99 1008.97 1009.28 1009.31 1009.77 1010.76 1010.87 1011.27 1011.00 1011.10 1011.39 1011.36 1011.33 1012.11 1012.57 1012.92 1013.38 1014.06 1014.48 1015.10 1015.49 1016.00 1016.46 1016.55 1017.30 1017.80 1018.00 1018.36 1018.44 1018.64 1018.86 1019.08 1019.47 1019.66 1019.73 1019.80 1019.82 1019.81 1019.89 1019.75 1019.75
1011.71 1011.22 1010.66 1009.63 1008.75 1009.06 1009.69 1008.73 1008.01 1008.20 1008.70 1009.08 1009.88 1010.22 1010.66 1011.14 1011.22 1011.49 1011.42 1011.30 1010.95 1011.14 1012.22 1013.14 1013.75 1014.32 1014.84 1015.27 1015.64 1016.29 1016.69 1016.94 1017.68 1018.12 1018.39 1018.45 1018.58 1018.84 1019.09 1019.33 1019.66 1019.59 1019.85 1019.87 1020.04 1020.11 1020.00 1020.00 1019.99
1012.18 1011.67 1011.03 1010.42 1009.00 1008.64 1008.73 1008.12 1007.19 1007.67 1008.35 1008.92 1009.99 1010.15 1010.55 1010.66 1011.67 1011.94 1011.85 1012.19 1012.16 1011.70 1012.21 1013.02 1013.60 1014.34 1014.91 1015.57 1016.39 1016.96 1017.52 1018.20 1018.14 1018.61 1018.63 1018.72 1018.89 1019.12 1019.31 1019.38 1019.54 1019.56 1019.74 1020.11 1020.17 1020.22 1019.99 1020.00 1020.06
1011.80 1011.75 1011.50 1010.09 1009.25 1009.53 1008.59 1008.18 1007.58 1008.23 1008.78 1009.29 1009.66 1010.06 1010.35 1011.29 1011.89 1012.49 1012.39 1013.00 1013.08 1012.83 1013.07 1013.51 1013.97 1014.83 1015.47 1016.22 1016.93 1017.67 1018.18 1018.47 1018.77 1018.67 1018.55 1019.02 1019.15 1019.08 1019.29 1019.62 1019.48 1019.60 1020.06 1020.23 1020.10 1020.17 1020.10 1019.88 1019.63
1011.49 1011.42 1010.94 1010.05 1009.13 1009.35 1008.52 1008.51 1007.92 1008.41 1008.56 1008.65 1009.47 1009.83 1010.19 1011.48 1012.61 1013.08 1013.34 1013.47 1013.79 1013.95 1014.10 1014.35 1014.80 1015.35 1015.90 1016.42 1016.90 1017.67 1018.29 1018.42 1018.77 1018.81 1018.64 1019.07 1019.22 1019.33 1019.57 1019.49 1019.76 1019.86 1020.04 1020.12 1020.09 1020.24 1020.26 1019.97 1019.58
1011.21 1011.20 1010.58 1010.60 1009.55 1009.24 1009.08 1009.49 1009.29 1009.21 1009.26 1009.51 1010.40 1010.51 1011.01 1011.40 1012.22 1013.12 1013.94 1014.26 1014.38 1014.63 1014.89 1015.19 1015.66 1016.16 1016.42 1016.78 1017.18 1017.93 1018.48 1018.72 1019.20 1019.09 1019.27 1019.19 1019.26 1019.41 1019.57 1019.54 1019.78 1019.96 1019.87 1020.01 1020.14 1020.21 1020.25 1020.29 1019.73
1010.89 1010.14 1010.41 1010.51 1010.60 1010.18 1010.00 1010.86 1010.53 1010.33 1010.31 1010.30 1010.83 1011.31 1011.96 1012.67 1013.52 1013.69 1014.22 1014.83 1015.02 1015.31 1015.38 1015.80 1016.18 1016.42 1016.63 1016.83 1017.13 1017.68 1018.41 1019.10 1019.40 1019.50 1019.63 1019.57 1019.40 1019.79 1019.64 1019.77 1019.96 1019.71 1019.78 1020.05 1020.10 1020.05 1020.12 1020.28 1020.09
1009.88 1009.84 1010.19 1010.28 1010.63 1010.71 1010.92 1011.47 1011.20 1011.18 1011.11 1010.85 1010.93 1011.67 1012.43 1012.92 1013.58 1014.30 1014.86 1015.38 1015.68 1015.83 1016.20 1016.29 1016.65 1016.89 1017.03 1017.11 1017.33 1018.03 1018.70 1019.40 1019.68 1019.93 1019.89 1020.31 1020.34 1020.04 1020.01 1019.95 1019.58 1019.77 1020.04 1020.08 1020.11 1020.05 1020.06 1019.98 1019.95
1009.20 1009.71 1010.33 1011.29 1011.43 1011.76 1011.45 1011.74 1011.61 1011.38 1010.62 1010.71 1011.01 1011.51 1012.33 1013.13 1013.86 1014.72 1015.46 1016.09 1016.36 1016.30 1016.24 1017.06 1017.18 1017.33 1017.46 1017.77 1018.09 1018.54 1019.37 1019.90 1020.18 1020.59 1020.95 1020.97 1020.74 1020.36 1019.96 1019.97 1020.25 1020.39 1020.30 1020.23 1020.13 1019.97 1019.77 1019.76 1019.67
1009.19 1010.46 1011.47 1012.09 1012.55 1012.61 1011.70 1012.05 1010.81 1010.09 1009.68 1009.54 1010.20 1011.00 1011.94 1012.95 1014.12 1015.02 1015.75 1016.29 1016.46 1016.79 1017.40 1017.70 1017.52 1017.88 1017.98 1018.17 1018.64 1019.24 1019.72 1020.19 1020.95 1021.29 1021.27 1021.04 1020.51 1020.56 1020.72 1020.88 1020.87 1020.68 1020.36 1020.08 1019.90 1019.90 1019.74 1019.57 1019.44
1009.03 1010.22 1011.47 1012.31 1013.03 1012.62 1011.93 1011.33 1010.12 1010.04 1009.24 1009.42 1010.50 1011.98 1012.94 1013.52 1014.31 1015.22 1015.83 1016.47 1017.22 1017.64 1017.61 1018.10 1018.18 1018.43 1018.67 1019.03 1019.68 1020.03 1020.50 1020.75 1020.91 1020.67 1020.59 1020.95 1021.26 1021.34 1021.20 1021.05 1020.88 1020.50 1020.15 1019.86 1019.76 1019.91 1019.84 1019.66 1019.46
1008.67 1009.64 1010.06 1011.50 1012.83 1012.68 1011.79 1010.79 1010.34 1010.13 1009.78 1010.39 1011.39 1012.56 1013.68 1014.34 1014.93 1015.58 1016.25 1016.85 1017.72 1018.19 1018.19 1018.65 1018.53 1019.07 1019.39 1019.75 1020.11 1020.39 1020.44 1020.22 1020.46 1020.91 1021.27 1021.46 1021.39 1021.20 1021.01 1021.01 1020.90 1020.63 1020.46 1020.18 1020.08 1020.04 1019.83 1019.59 1019.32
1007.89 1008.76 1010.14 1011.68 1012.57 1013.01 1012.03 1011.10 1010.45 1010.53 1010.65 1011.23 1011.72 1012.42 1013.56 1014.31 1014.88 1015.50 1016.33 1017.42 1017.74 1017.49 1017.67 1018.46 1018.84 1019.50 1019.92 1020.18 1020.07 1019.93 1020.23 1020.59 1020.95 1021.43 1021.46 1021.35 1021.26 1021.17 1021.14 1021.11 1020.90 1020.78 1020.57 1020.30 1020.15 1019.92 1019.69 1019.51 1019.17
1008.13 1008.72 1010.06 1011.17 1011.91 1012.20 1011.96 1010.97 1008.62 1008.91 1009.62 1010.02 1011.05 1012.00 1012.85 1013.72 1014.47 1015.34 1016.00 1016.60 1017.18 1017.31 1017.78 1018.12 1018.88 1019.33 1019.91 1019.94 1020.09 1020.39 1020.88 1020.83 1021.34 1021.35 1021.26 1021.25 1021.23 1021.21 1021.13 1021.12 1020.96 1020.84 1020.63 1020.33 1020.07 1019.79 1019.55 1019.35 1019.02
1007.48 1008.00 1009.09 1010.84 1011.41 1011.59 1010.85 1008.96 1007.67 1007.71 1008.23 1009.63 1010.88 1011.66 1012.33 1012.89 1014.09 1015.06 1015.96 1016.75 1017.15 1017.60 1018.13 1018.29 1018.57 1018.81 1019.52 1019.99 1020.53 1020.90 1020.86 1020.93 1021.20 1021.22 1021.18 1021.13 1021.22 1021.01 1021.01 1021.03 1020.89 1020.63 1020.34 1020.05 1019.90 1019.58 1019.35 1019.19 1018.83
Thickness
5822 5821 5819 5810 5772 5760 5749 5757 5776 5778 5779 5792 5803 5794 5789 5791 5781 5759 5803 5804 5804 5794 5788 5783 5776 5774 5774 5773 5772 5771 5770 5767 5767 5764 5763 5762 5761 5760 5760 5758 5757 5756 5755 5755 5754 5754 5753 5752 5751
5821 5819 5812 5789 5755 5738 5746 5768 5772 5780 5791 5802 5796 5794 5789 5782 5798 5793 5793 5800 5799 5793 5788 5782 5778 5775 5774 5773 5771 5769 5768 5766 5766 5763 5762 5760 5759 5758 5756 5755 5753 5754 5752 5752 5751 5751 5751 5750 5749
5818 5816 5788 5763 5743 5741 5749 5774 5778 5791 5803 5802 5792 5801 5788 5782 5794 5796 5801 5798 5794 5787 5786 5781 5777 5775 5772 5770 5768 5766 5764 5764 5763 5762 5760 5759 5757 5757 5755 5753 5752 5751 5750 5750 5749 5749 5748 5748 5746
5806 5798 5781 5757 5758 5766 5773 5775 5790 5793 5800 5809 5800 5784 5796 5802 5799 5802 5798 5794 5788 5782 5781 5780 5776 5773 5769 5766 5764 5763 5762 5761 5760 5760 5758 5757 5756 5755 5754 5752 5751 5749 5748 5747 5746 5745 5744 5744 5743
5798 5779 5750 5749 5756 5770 5784 5793 5798 5792 5791 5790 5803 5773 5780 5792 5796 5801 5796 5790 5783 5778 5778 5777 5773 5769 5766 5763 5762 5761 5761 5759 5759 5759 5758 5757 5756 5754 5753 5752 5751 5749 5747 5745 5743 5741 5740 5739 5738
5776 5769 5738 5736 5759 5775 5784 5790 5786 5784 5783 5792 5793 5782 5781 5797 5790 5791 5794 5788 5781 5781 5777 5775 5771 5767 5765 5763 5762 5761 5761 5760 5759 5758 5756 5755 5754 5752 5750 5749 5748 5746 5743 5741 5740 5738 5736 5734 5731
5771 5754 5743 5747 5752 5766 5780 5787 5781 5783 5782 5786 5800 5783 5788 5790 5789 5788 5788 5787 5781 5779 5777 5776 5773 5770 5768 5765 5764 5763 5762 5759 5757 5756 5754 5753 5750 5748 5747 5745 5743 5741 5739 5737 5735 5734 5732 5729 5726
5773 5761 5754 5751 5751 5759 5779 5783 5788 5791 5784 5805 5807 5787 5781 5793 5792 5783 5782 5782 5779 5778 5776 5776 5776 5775 5772 5770 5767 5764 5761 5758 5756 5754 5752 5750 5748 5747 5744 5741 5739 5736 5733 5730 5728 5726 5724 5721 5718
5783 5748 5739 5755 5761 5773 5779 5777 5789 5799 5791 5797 5802 5809 5815 5806 5791 5775 5773 5774 5774 5776 5777 5778 5777 5777 5774 5769 5765 5763 5761 5760 5759 5756 5753 5750 5747 5743 5740 5738 5735 5731 5727 5724 5720 5716 5713 5710 5708
5764 5743 5762 5778 5780 5772 5777 5777 5780 5780 5784 5793 5806 5819 5813 5810 5795 5782 5772 5769 5768 5770 5772 5776 5780 5778 5774 5771 5767 5763 5761 5761 5758 5755 5751 5746 5743 5740 5735 5732 5729 5725 5721 5717 5713 5709 5706 5703 5699
5768 5760 5785 5789 5786 5785 5779 5778 5782 5774 5767 5793 5797 5802 5808 5803 5794 5785 5785 5785 5785 5781 5776 5775 5775 5776 5774 5770 5766 5762 5761 5758 5757 5754 5748 5742 5737 5734 5730 5725 5721 5719 5715 5709 5704 5700 5695 5692 5688
5767 5782 5786 5792 5791 5783 5782 5790 5783 5782 5795 5806 5811 5822 5817 5804 5800 5793 5793 5791 5783 5784 5785 5780 5775 5775 5773 5773 5769 5765 5759 5755 5753 5748 5743 5737 5730 5726 5722 5719 5714 5709 5704 5699 5693 5688 5683 5680 5678
5768 5780 5787 5797 5793 5796 5794 5790 5789 5792 5804 5806 5812 5818 5813 5809 5805 5806 5807 5799 5788 5782 5783 5781 5779 5778 5779 5776 5773 5768 5760 5750 5747 5745 5739 5733 5726 5720 5715 5709 5705 5698 5692 5687 5682 5676 5672 5668 5664
5779 5783 5788 5797 5799 5797 5790 5786 5792 5807 5807 5802 5805 5810 5806 5804 5796 5801 5801 5798 5787 5788 5785 5781 5776 5779 5779 5779 5776 5770 5764 5752 5741 5738 5733 5726 5718 5713 5708 5701 5695 5689 5682 5676 5672 5665 5661 5657 5652
5780 5770 5782 5799 5798 5785 5791 5771 5780 5805 5805 5800 5800 5796 5797 5800 5802 5799 5805 5801 5795 5793 5787 5786 5782 5781 5778 5775 5773 5764 5760 5752 5740 5734 5729 5721 5714 5708 5702 5695 5686 5680 5675 5669 5664 5659 5655 5648 5641
5765 5760 5749 5785 5796 5794 5791 5764 5794 5804 5800 5799 5800 5792 5795 5797 5802 5802 5800 5801 5802 5795 5789 5785 5785 5777 5773 5767 5762 5754 5745 5745 5736 5728 5723 5716 5711 5703 5696 5689 5681 5674 5669 5663 5657 5651 5643 5638 5630
5738 5735 5749 5765 5795 5790 5776 5774 5801 5806 5802 5798 5794 5796 5796 5794 5796 5797 5797 5798 5804 5802 5790 5781 5778 5773 5768 5762 5756 5749 5739 5737 5730 5722 5715 5709 5702 5693 5687 5681 5672 5668 5661 5654 5646 5639 5634 5626 5617
5729 5736 5742 5748 5775 5777 5772 5779 5806 5803 5800 5800 5789 5795 5795 5796 5787 5790 5792 5792 5791 5794 5787 5780 5775 5767 5762 5756 5746 5737 5727 5720 5720 5712 5705 5697 5689 5683 5678 5672 5666 5660 5652 5644 5638 5630 5623 5615 5605
5745 5738 5734 5757 5772 5767 5770 5772 5791 5791 5790 5790 5790 5792 5794 5787 5787 5784 5786 5782 5781 5782 5778 5774 5768 5758 5751 5742 5731 5720 5713 5711 5705 5701 5697 5687 5681 5679 5672 5663 5659 5653 5644 5636 5630 5620 5611 5602 5597
5744 5737 5740 5757 5773 5766 5772 5773 5793 5788 5793 5799 5795 5795 5794 5784 5776 5776 5774 5776 5774 5772 5768 5763 5756 5749 5743 5736 5728 5720 5712 5709 5700 5694 5690 5681 5676 5671 5662 5659 5651 5644 5635 5627 5618 5607 5599 5592 5587
5738 5737 5740 5741 5761 5770 5768 5757 5768 5782 5787 5792 5786 5790 5790 5786 5778 5772 5768 5767 5768 5764 5761 5755 5744 5738 5736 5730 5725 5715 5707 5701 5690 5687 5680 5675 5668 5662 5656 5652 5643 5633 5626 5616 5605 5596 5589 5583 5581
5721 5750 5751 5747 5745 5725 5759 5716 5749 5762 5767 5776 5778 5776 5775 5772 5765 5766 5764 5760 5760 5756 5752 5745 5740 5735 5731 5727 5721 5712 5703 5692 5685 5679 5672 5667 5663 5653 5649 5642 5632 5626 5617 5604 5595 5589 5583 5576 5571
5740 5753 5747 5750 5741 5738 5741 5720 5732 5750 5755 5764 5771 5771 5767 5767 5763 5759 5756 5754 5752 5749 5743 5740 5735 5730 5726 5720 5714 5704 5693 5682 5674 5666 5661 5653 5647 5645 5638 5631 5626 5615 5604 5596 5588 5581 5574 5569 5564
5759 5749 5738 5722 5718 5702 5730 5721 5722 5732 5752 5760 5768 5769 5765 5763 5759 5753 5749 5743 5741 5742 5740 5732 5728 5722 5716 5709 5701 5692 5679 5669 5662 5653 5646 5639 5637 5635 5630 5622 5611 5601 5594 5587 5579 5573 5568 5563 5558
5745 5718 5685 5691 5691 5689 5727 5713 5730 5761 5765 5774 5771 5766 5766 5762 5753 5748 5742 5738 5736 5733 5727 5722 5720 5713 5707 5700 5690 5678 5669 5660 5647 5640 5635 5633 5632 5624 5615 5605 5596 5590 5584 5579 5573 5567 5562 5558 5554
5728 5714 5681 5679 5678 5695 5715 5707 5734 5753 5771 5780 5767 5756 5753 5752 5749 5744 5739 5732 5725 5721 5718 5711 5707 5700 5693 5684 5672 5663 5654 5646 5640 5636 5632 5624 5615 5607 5600 5593 5587 5582 5577 5572 5566 5559 5554 5549 5545
5731 5711 5732 5701 5693 5688 5702 5730 5746 5750 5758 5759 5752 5746 5740 5738 5737 5735 5728 5723 5716 5710 5707 5701 5698 5689 5679 5670 5660 5652 5646 5643 5637 5627 5620 5612 5606 5599 5592 5584 5577 5571 5566 5562 5556 5549 5545 5542 5538
5735 5739 5709 5690 5683 5678 5691 5715 5718 5732 5739 5743 5744 5743 5737 5734 5732 5729 5723 5714 5710 5710 5705 5695 5688 5678 5666 5658 5652 5649 5642 5634 5625 5617 5611 5606 5599 5591 5583 5575 5569 5562 5557 5552 5547 5542 5539 5535 5531
5718 5714 5710 5701 5686 5673 5671 5692 5742 5746 5746 5747 5747 5743 5739 5736 5733 5727 5721 5715 5707 5703 5696 5690 5681 5672 5660 5654 5648 5641 5632 5626 5617 5611 5606 5599 5591 5582 5575 5566 5560 5553 5548 5544 5539 5536 5533 5529 5525
5729 5719 5709 5681 5691 5683 5683 5700 5761 5760 5758 5750 5741 5741 5740 5740 5730 5722 5714 5705 5700 5695 5688 5684 5677 5670 5659 5650 5640 5632 5626 5620 5611 5604 5598 5590 5582 5575 5567 5557 5551 5546 5542 5537 5532 5530 5527 5523 5520